Weather History for Swansboro, NC

Change the Weather History Date:

Friday, January 4, 2013

  Actual Average (KNKT) Record (KNKT)
Temperature  
Mean Temperature 40 °F -  
Max Temperature 51 °F 55 °F 82 °F (2005)
Min Temperature 28 °F 34 °F 17 °F (2001)
Degree Days  
Heating Degree Days 26    
Moisture  
Dew Point 28 °F    
Average Humidity 66    
Maximum Humidity 96    
Minimum Humidity 38    
Precipitation  
Precipitation 0.00 in - - ()
Sea Level Pressure  
Sea Level Pressure 30.28 in    
Wind  
Wind Speed 3 mph (WNW)    
Max Wind Speed 12 mph    
Max Gust Speed -    
Visibility 9 miles    
Events      
Averages and records for this station are not official NWS values.
T = Trace of Precipitation, MM = Missing Value Source: NWS Daily Summary

Daily Weather History Graph

Daily Weather History Graph

Search for Another Location

Airport:

Trip Planner

Search our weather history database for the weather conditions in past years. The results will help you decide how hot, cold, wet, or windy it might be!

Date:

Astronomy

Jan. 04, 2013 Rise Set
Actual Time 7:15 AM EST 5:10 PM EST
Civil Twilight 6:47 AM EST 5:38 PM EST
Nautical Twilight 6:16 AM EST 6:10 PM EST
Astronomical Twilight 5:46 AM EST 6:40 PM EST
Moon No Moon Rise 11:16 AM EST (1/4)
Length of Visible Light 10h 50m
Length of Day
9h 55m
Waning Gibbous, 55% of the Moon is Illuminated
Jan 4
Waning Gibbous
Jan 4
Last Quarter
Jan 11
New
Jan 18
First Quarter
Jan 26
Full

Hourly Weather History & Observations

Time (EST) Temp. Windchill Dew Point Humidity Pressure Visibility Wind Dir Wind Speed Gust Speed Precip Events Conditions
2:57 AM 30.0 °F - 28.0 °F 92% 30.28 in 10.0 mi Calm Calm - N/A   Clear
3:57 AM 28.9 °F 25.2 °F 27.0 °F 92% 30.29 in 6.0 mi NW 3.5 mph - N/A   Clear
4:57 AM 30.0 °F 26.5 °F 28.0 °F 92% 30.28 in 7.0 mi NW 3.5 mph - N/A   Clear
5:57 AM 30.0 °F 25.2 °F 28.0 °F 92% 30.30 in 8.0 mi NW 4.6 mph - N/A   Clear
6:57 AM 28.0 °F 24.2 °F 27.0 °F 96% 30.30 in 6.0 mi NW 3.5 mph - N/A   Clear
9:57 AM 42.1 °F 35.7 °F 26.1 °F 53% 30.34 in 10.0 mi NNW 11.5 mph - N/A   Partly Cloudy
10:57 AM 45.0 °F 41.8 °F 25.0 °F 46% 30.33 in 10.0 mi NNW 5.8 mph - N/A   Partly Cloudy
11:57 AM 46.9 °F - 25.0 °F 42% 30.30 in 10.0 mi WNW 8.1 mph - N/A   Partly Cloudy
12:57 PM 48.9 °F - 26.1 °F 41% 30.26 in 10.0 mi Variable 4.6 mph - N/A   Partly Cloudy
1:57 PM 50.0 °F - 25.0 °F 38% 30.23 in 10.0 mi West 6.9 mph - N/A   Partly Cloudy
2:57 PM 51.1 °F - 26.1 °F 38% 30.23 in 10.0 mi WNW 6.9 mph - N/A   Clear
3:57 PM 51.1 °F - 26.1 °F 38% 30.23 in 10.0 mi NW 5.8 mph - N/A   Clear
4:57 PM 45.0 °F 43.5 °F 28.9 °F 53% 30.23 in 10.0 mi West 3.5 mph - N/A   Clear
5:57 PM 39.0 °F - 32.0 °F 76% 30.23 in 10.0 mi Calm Calm - N/A   Clear
6:57 PM 36.0 °F - 30.9 °F 82% 30.26 in 10.0 mi Calm Calm - N/A   Clear
7:57 PM 35.1 °F - 30.0 °F 82% 30.27 in 10.0 mi Calm Calm - N/A   Clear
8:57 PM 42.1 °F 39.2 °F 32.0 °F 67% 30.29 in 10.0 mi West 4.6 mph - N/A   Mostly Cloudy
9:57 PM 44.1 °F - 30.0 °F 58% 30.30 in 10.0 mi Calm Calm - N/A   Overcast
10:57 PM 43.0 °F 41.3 °F 30.0 °F 60% 30.30 in 10.0 mi West 3.5 mph - N/A   Mostly Cloudy
11:57 PM 36.0 °F - 28.0 °F 73% 30.29 in 10.0 mi Calm Calm - N/A   Clear